Kicking Horse, Canada 16 day weather forecast

Slopes altitude range 1190 m - 2445m

Number of lifts: 5 Pistes: 70km

In some cases the lift and piste totals shown are for the ski domain (e.g. Three Valleys) rather than individual resort (e.g. Courchevel)

Overview

The 16 day weather forecast is fully updated 4 times every day.

    • Tue 24 APR 2018
    • Tue 24
    • -6C -4C
    • Wed 25 APR 2018
    • Wed 25
    • -1C -1C
    • Thu 26 APR 2018
    • Thu 26
    • 0C 1C
    • Fri 27 APR 2018
    • Fri 27
    • 2C 4C
    • Sat 28 APR 2018
    • Sat 28
    • 4C 6C
    • Sun 29 APR 2018
    • Sun 29
    • 6C 7C
    • Mon 30 APR 2018
    • Mon 30
    • 1C 3C
    • Tue 01 MAY 2018
    • Tue 01
    • -5C -2C
    • Wed 02 MAY 2018
    • Wed 02
    • -3C -1C
    • Thu 03 MAY 2018
    • Thu 03
    • -8C -7C
    • Fri 04 MAY 2018
    • Fri 04
    • -4C 4C
    • Sat 05 MAY 2018
    • Sat 05
    • -1C 10C
    • Sun 06 MAY 2018
    • Sun 06
    • 2C 13C
    • Mon 07 MAY 2018
    • Mon 07
    • 5C 14C
    • Tue 08 MAY 2018
    • Tue 08
    • -2C 5C
    • Wed 09 MAY 2018
    • Wed 09
    • -4C 6C

Date:

Time Type 0°C level Temp Chill Snow Cloud Speed Gust Dir Press
3:00 1217m -2°C -2_2 0cm 5% 2mph 3mph 1030mB
6:00 930m -4°C -4_4 0cm 3% 4mph 5mph 1033mB
9:00 760m -5°C -5_5 0cm 10% 5mph 5mph 1033mB
12:00 660m -4°C -4_5 0cm 26% 5mph 6mph 1033mB
15:00 1948m 0°C 0_4 0cm 74% 4mph 6mph 1029mB
18:00 2687m 4°C 4_4 0cm 73% 4mph 5mph 1024mB
21:00 2811m 4°C 4_3 0cm 66% 3mph 4mph 1021mB
0:00 2864m 4°C 4_2 0cm 57% 2mph 3mph 1019mB
3:00 2621m 1°C 1_3 0cm 62% 3mph 4mph 1021mB
6:00 1337m -1°C -1_6 0cm 61% 6mph 6mph 1022mB
9:00 1790m -1°C -1_5 0cm 80% 5mph 6mph 1021mB
12:00 1778m -1°C -1_3 0cm 87% 3mph 3mph 1022mB
15:00 2273m 3°C 3_2 0cm 40% 2mph 3mph 1022mB
18:00 2238m 7°C 7_2 0cm 24% 2mph 4mph 1021mB
21:00 2351m 8°C 8_3 0cm 9% 3mph 5mph 1021mB
0:00 2440m 8°C 8_3 0cm 8% 3mph 5mph 1020mB
3:00 2486m 2°C 2_1 0cm 14% 1mph 1mph 1022mB
6:00 2771m 1°C 1_3 0cm 12% 3mph 4mph 1025mB
9:00 2179m 0°C 0_4 0cm 24% 4mph 5mph 1025mB
12:00 2196m 1°C 1_4 0cm 31% 4mph 5mph 1025mB
15:00 3515m 4°C 4_3 0cm 44% 3mph 4mph 1022mB
18:00 3550m 10°C 10_3 0cm 52% 3mph 4mph 1020mB
21:00 3546m 10°C 10_2 0cm 48% 2mph 3mph 1017mB
0:00 3530m 10°C 10_1 0cm 41% 1mph 2mph 1015mB
3:00 3554m 5°C 5_2 0cm 24% 2mph 2mph 1016mB
6:00 3571m 4°C 4_3 0cm 24% 3mph 4mph 1017mB
9:00 3584m 3°C 3_4 0cm 35% 4mph 4mph 1017mB
12:00 3597m 4°C 4_4 0cm 29% 4mph 4mph 1016mB
15:00 3570m 7°C 7_3 0cm 33% 3mph 3mph 1014mB
18:00 3619m 14°C 14_1 0cm 37% 1mph 2mph 1010mB
21:00 3612m 14°C 14_2 0cm 43% 2mph 3mph 1007mB
0:00 3581m 14°C 14_2 0cm 43% 2mph 3mph 1005mB
3:00 3556m 8°C 8_2 0cm 49% 2mph 2mph 1005mB
6:00 3459m 6°C 6_4 0cm 53% 4mph 4mph 1005mB
9:00 3392m 5°C 5_3 0cm 63% 3mph 4mph 1003mB
12:00 3324m 6°C 6_4 0cm 64% 4mph 4mph 1001mB
15:00 3370m 9°C 9_2 0cm 88% 2mph 2mph 998mB
18:00 3284m 16°C 16_2 0cm 89% 2mph 2mph 995mB
21:00 3133m 15°C 15_4 0cm 91% 4mph 3mph 993mB
0:00 3079m 14°C 14_2 0cm 95% 2mph 3mph 993mB
3:00 3013m 10°C 10_2 0cm 96% 2mph 3mph 994mB
6:00 2816m 7°C 7_0 0cm 92% 0mph 1mph 995mB
9:00 2669m 7°C 7_1 0cm 90% 1mph 1mph 996mB
12:00 2577m 7°C 7_4 0cm 95% 4mph 5mph 998mB
15:00 2388m 8°C 8_5 0cm 92% 5mph 8mph 1000mB
18:00 2238m 9°C 9_7 0cm 91% 7mph 7mph 1002mB
21:00 2219m 8°C 8_5 0cm 98% 5mph 5mph 1002mB
0:00 2206m 8°C 8_3 0cm 99% 3mph 4mph 1004mB
3:00 2104m 5°C 5_3 0cm 97% 3mph 4mph 1008mB
6:00 1994m 3°C 3_4 0cm 96% 4mph 5mph 1011mB
9:00 1896m 1°C 1_4 0cm 72% 4mph 5mph 1012mB
12:00 1846m 3°C 3_3 0cm 65% 3mph 4mph 1013mB
15:00 1885m 4°C 4_2 1cm 94% 2mph 3mph 1011mB
18:00 2137m 8°C 8_6 0cm 74% 6mph 7mph 1008mB
21:00 2215m 8°C 8_8 0cm 83% 8mph 12mph 1006mB
0:00 2227m 8°C 8_7 1cm 85% 7mph 15mph 1006mB
3:00 2136m 3°C 3_4 0cm 18% 4mph 5mph 1009mB
6:00 2059m 1°C 1_3 0cm 27% 3mph 4mph 1013mB
9:00 1685m -3°C -3_4 3cm 98% 4mph 4mph 1015mB
12:00 1391m -2°C -2_4 4cm 63% 4mph 4mph 1018mB
15:00 1983m -1°C -1_5 0cm 1% 5mph 5mph 1018mB
18:00 2220m 2°C 2_8 0cm 1% 8mph 8mph 1015mB
21:00 2438m 2°C 2_8 0cm 73% 8mph 10mph 1012mB
0:00 2542m 2°C 2_9 0cm 69% 9mph 12mph 1010mB
3:00 2501m 1°C 1_7 0cm 12% 7mph 8mph 1012mB
6:00 1934m -1°C -1_7 0cm 29% 7mph 8mph 1013mB
9:00 1769m -2°C -2_7 0cm 97% 7mph 7mph 1012mB
12:00 1677m -1°C -1_7 0cm 82% 7mph 10mph 1011mB
15:00 2128m 0°C 0_10 0cm 57% 10mph 13mph 1008mB
18:00 2215m 1°C 1_12 2cm 75% 12mph 24mph 1007mB
21:00 2011m -1°C -1_15 8cm 95% 15mph 35mph 1011mB
0:00 1656m -3°C -3_15 8cm 86% 15mph 24mph 1015mB
3:00 1352m -5°C -5_5 1cm 99% 5mph 9mph 1019mB
6:00 994m -7°C -7_5 1cm 84% 5mph 5mph 1023mB
9:00 1034m -7°C -7_4 0cm 84% 4mph 5mph 1025mB
12:00 861m -7°C -7_3 0cm 50% 3mph 4mph 1027mB
15:00 1385m -5°C -5_6 0cm 0% 6mph 7mph 1026mB
18:00 1869m -2°C -2_9 0cm 11% 9mph 10mph 1023mB
Morning 0.458333mm 0 1678m -3°C -3_5 0cm 70% 5mph 6mph 1025mB
Afternoon 0.197917mm 0 2434m 4°C 4_8 0cm 39% 8mph 9mph 1021mB
Morning 0.00520833mm 0 2794m 1°C 1_6 0cm 18% 6mph 7mph 1021mB
Afternoon 0.0572917mm 0 2944m 10°C 10_9 0cm 0% 9mph 10mph 1018mB
Morning 0.817708mm 0 3276m 6°C 6_6 0cm 46% 6mph 7mph 1019mB
Afternoon 0.489583mm 0 3317m 13°C 13_10 0cm 57% 10mph 11mph 1017mB
Morning 1.14062mm 0 3660m 8°C 8_6 0cm 13% 6mph 8mph 1015mB
Afternoon 0.28125mm 0 3408m 14°C 14_17 0cm 32% 17mph 28mph 1008mB
Morning 0.776042mm 0.3125 2757m 5°C 5_10 0cm 46% 10mph 14mph 1009mB
Afternoon 0.385417mm 0.3125 2130m 5°C 5_11 3cm 78% 11mph 13mph 1020mB
Morning 0.135417mm 0.1875 1744m -3°C -3_6 0cm 46% 6mph 8mph 1020mB
Afternoon 0.385417mm 0 2521m 6°C 6_13 0cm 61% 13mph 16mph 1004mB

16 day outlook at a glance

Forecast issued: 24/04/2018 05:23:06

Chat

Your comments and questions. In a resort? Let us know what it's like!


Characters left 250

For terms and conditions see Readers Comments on the Cookie and privacy policy page.